Regional Weather Roundup
Issued by NWS

Home | Current Version | Previous Version | Graphics & Text | Print | Product List | Glossary On
Versions: 1 2 3 4 5 6 7 8 9 10 11 12 13 14 15 16 17 18 19 20 21 22 23 24 25 26 27 28 29 30 31 32 33 34 35 36 37 38 39 40 41 42 43 44 45 46 47 48 49 50
258
ASUS44 KJAN 230610
RWRMS

MISSISSIPPI HOURLY WEATHER ROUNDUP
NATIONAL WEATHER SERVICE JACKSON MS
100 AM CDT SAT AUG 23 2014

NOTE: "FAIR: INDICATES FEW OR NO CLOUDS BELOW 12,000 FEET WITH NO
SIGNIFICANT WEATHER AND/OR OBSTRUCTIONS TO VISIBILITY.

MSZ001>002-007>008-010>013-018>021-025>028-034>036-230700-
NORTHWEST MISSISSIPPI

CITY           SKY/WX    TMP DP  RH WIND       PRES   REMARKS
CLARKSDALE     FAIR      77  75  94 CALM      30.01S
CLEVELAND      FAIR      76  73  90 S5        30.00S
GREENWOOD      FAIR      74  71  91 CALM      30.01F
6HR MIN TEMP:  74; 6HR MAX TEMP:  86;

GREENVILLE     FAIR      76  71  85 S5        30.00F
6HR MIN TEMP:  74; 6HR MAX TEMP:  90;

GRENADA        FAIR      72  72 100 CALM      30.01F
OLIVE BRANCH   CLEAR     75  75 100 CALM      30.01F
OXFORD         FAIR      73  72  94 CALM      30.03F
TUNICA         FAIR      77  72  83 CALM      30.00F
$$

MSZ003>006-009-014>017-022>024-029>033-037>039-230700-
NORTHEAST MISSISSIPPI

CITY           SKY/WX    TMP DP  RH WIND       PRES   REMARKS
BELMONT        FAIR      74  74  98 CALM      30.02F
COLUMBUS AFB   FAIR      75  73  93 CALM      30.01F
6HR MIN TEMP:  74; 6HR MAX TEMP:  91;

CORINTH        FAIR      75  72  88 CALM      30.00F
GOLDN TRIANGLE FAIR      73  68  83 CALM      30.01F
STARKVILLE     FAIR      70  68  94 CALM      30.01F
TUPELO         FAIR      77  73  87 CALM      30.01F
6HR MIN TEMP:  77; 6HR MAX TEMP:  91;

$$

MSZ040-058-230700-
CENTRAL MISSISSIPPI

CITY           SKY/WX    TMP DP  RH WIND       PRES   REMARKS
JACKSON INTL   FAIR      76  73  91 CALM      30.02F
6HR MIN TEMP:  75; 6HR MAX TEMP:  90;

JACKSON HAWKNS FAIR      78  72  81 CALM      30.03S
6HR MIN TEMP:  77; 6HR MAX TEMP:  90;

MERIDIAN KEY   FAIR      75  72  90 CALM      30.02F
6HR MIN TEMP:  74; 6HR MAX TEMP:  90;

MERIDIAN NAS   FAIR      76  72  87 CALM      30.02F
6HR MIN TEMP:  76; 6HR MAX TEMP:  90;

RAYMOND        FAIR      73  68  83 CALM      30.02S HAZE
VICKSBURG      FAIR      74  72  93 CALM      30.01S
6HR MIN TEMP:  72; 6HR MAX TEMP:  88;

$$

MSZ059>079-230700-
SOUTH MISSISSIPPI

CITY           SKY/WX    TMP DP  RH WIND       PRES   REMARKS
BROOKHAVEN     FAIR      75  75 100 CALM      30.05F FOG
COLUMBIA       FAIR      75  75 100 MISG      30.01S FOG
HATTIESBURG    FAIR      79  75  87 CALM      30.01F FOG
6HR MIN TEMP:  78; 6HR MAX TEMP:  93;

MCCOMB         FAIR      78  74  87 CALM      30.03F
6HR MIN TEMP:  77; 6HR MAX TEMP:  90;

NATCHEZ        FAIR      75  73  94 CALM      30.02F
6HR MIN TEMP:  75; 6HR MAX TEMP:  90;

PINE BELT      FAIR      75  72  88 CALM      30.03F
6HR MIN TEMP:  75; 6HR MAX TEMP:  93;

$$

MSZ080>082-230700-
COASTAL MISSISSIPPI

CITY           SKY/WX    TMP DP  RH WIND       PRES   REMARKS
BILOXI         FAIR      83  76  80 CALM      30.01F HX  91
6HR MIN TEMP:  83; 6HR MAX TEMP:  89;

PASCAGOULA     FAIR      76  75  97 CALM      30.01F FOG
6HR MIN TEMP:  76; 6HR MAX TEMP:  86;

GULFPORT       MOCLDY    81  76  84 CALM      30.01F
6HR MIN TEMP:  81; 6HR MAX TEMP:  89;

$$



USA.gov is the U.S. government's official web portal to all federal, state and local government web resources and services.